Weather History for Warrensburg, MO

Change the Weather History Date:

Saturday, March 23, 2013

  Actual Average (KSZL) Record (KSZL)
Temperature  
Mean Temperature 36 °F -  
Max Temperature 41 °F 56 °F 75 °F (2009)
Min Temperature 32 °F 35 °F 23 °F (2002)
Degree Days  
Heating Degree Days 28    
Moisture  
Dew Point 30 °F    
Average Humidity 84    
Maximum Humidity 100    
Minimum Humidity 61    
Precipitation  
Precipitation 0.27 in - - ()
Sea Level Pressure  
Sea Level Pressure 29.95 in    
Wind  
Wind Speed 8 mph (NNE)    
Max Wind Speed 15 mph    
Max Gust Speed 20 mph    
Visibility 8 miles    
Events Rain , Snow    
Averages and records for this station are not official NWS values.
T = Trace of Precipitation, MM = Missing Value Source: NWS Daily Summary

Daily Weather History Graph

Daily Weather History Graph

Search for Another Location

Airport:

Trip Planner

Search our weather history database for the weather conditions in past years. The results will help you decide how hot, cold, wet, or windy it might be!

Date:

Astronomy

Mar. 23, 2013 Rise Set
Actual Time 7:13 AM CDT 7:30 PM CDT
Civil Twilight 6:46 AM CDT 7:56 PM CDT
Nautical Twilight 6:15 AM CDT 8:28 PM CDT
Astronomical Twilight 5:44 AM CDT 9:00 PM CDT
Moon 3:59 PM CDT (3/23) 4:48 AM CDT (3/23)
Length of Visible Light 13h 09m
Length of Day
12h 16m
Waxing Gibbous, 85% of the Moon is Illuminated
Mar 23
Waxing Gibbous
Mar 27
Full
Apr 2
Last Quarter
Apr 10
New
Apr 18
First Quarter

Hourly Weather History & Observations

Time (CDT) Temp. Windchill Dew Point Humidity Pressure Visibility Wind Dir Wind Speed Gust Speed Precip Events Conditions
12:15 AM 32.0 °F 27.5 °F 30.2 °F 93% 30.01 in 10.0 mi NNE 4.6 mph - N/A   Overcast
12:35 AM 32.0 °F 26.4 °F 30.2 °F 93% 30.01 in 10.0 mi NNE 5.8 mph - N/A   Overcast
12:55 AM 32.0 °F 28.7 °F 30.2 °F 93% 30.00 in 10.0 mi NNE 3.5 mph - N/A   Overcast
1:15 AM 32.0 °F 25.6 °F 30.2 °F 93% 30.00 in 10.0 mi NNE 6.9 mph - N/A   Overcast
1:35 AM 32.0 °F 26.4 °F 30.2 °F 93% 30.00 in 10.0 mi NNE 5.8 mph - N/A   Overcast
1:55 AM 32.0 °F 26.4 °F 30.2 °F 93% 30.00 in 10.0 mi NNE 5.8 mph - N/A   Overcast
2:15 AM 32.0 °F 24.8 °F 30.2 °F 93% 30.00 in 10.0 mi NNE 8.1 mph - N/A   Overcast
2:35 AM 32.0 °F 24.8 °F 30.2 °F 93% 30.00 in 10.0 mi NNE 8.1 mph - N/A   Overcast
2:55 AM 32.0 °F 24.8 °F 30.2 °F 93% 29.99 in 10.0 mi NE 8.1 mph - N/A   Overcast
3:15 AM 32.0 °F 24.8 °F 30.2 °F 93% 29.98 in 10.0 mi NNE 8.1 mph - N/A   Overcast
3:35 AM 32.0 °F 25.6 °F 30.2 °F 93% 29.97 in 10.0 mi NE 6.9 mph - N/A   Overcast
3:55 AM 32.0 °F 26.4 °F 30.2 °F 93% 29.98 in 10.0 mi NNE 5.8 mph - N/A   Overcast
4:55 AM 33.8 °F 27.7 °F 30.2 °F 87% 29.98 in 10.0 mi ENE 6.9 mph - N/A   Overcast
5:15 AM 33.8 °F 29.6 °F 30.2 °F 87% 29.98 in 10.0 mi NE 4.6 mph - N/A   Overcast
5:35 AM 33.8 °F 29.6 °F 30.2 °F 87% 29.99 in 10.0 mi NNE 4.6 mph - N/A   Overcast
5:55 AM 33.8 °F 28.6 °F 28.4 °F 81% 29.99 in 10.0 mi NNE 5.8 mph - N/A   Overcast
6:35 AM 33.8 °F 27.7 °F 28.4 °F 81% 30.00 in 10.0 mi NNE 6.9 mph - N/A   Overcast
6:55 AM 33.8 °F 27.0 °F 28.4 °F 81% 29.99 in 10.0 mi NNE 8.1 mph - N/A   Overcast
7:15 AM 32.0 °F 24.2 °F 28.4 °F 87% 29.99 in 10.0 mi NNE 9.2 mph - N/A   Overcast
7:35 AM 33.8 °F 28.6 °F 28.4 °F 81% 30.00 in 10.0 mi NE 5.8 mph - N/A   Overcast
7:55 AM 33.8 °F 28.6 °F 28.4 °F 81% 30.00 in 10.0 mi NE 5.8 mph - N/A   Overcast
8:15 AM 33.8 °F 28.6 °F 28.4 °F 81% 30.00 in 10.0 mi NNE 5.8 mph - N/A   Overcast
8:35 AM 33.8 °F 27.0 °F 28.4 °F 81% 30.01 in 10.0 mi NNE 8.1 mph - N/A   Overcast
8:55 AM 33.8 °F 27.0 °F 28.4 °F 81% 30.01 in 10.0 mi NE 8.1 mph - N/A   Overcast
9:15 AM 33.8 °F 27.0 °F 28.4 °F 81% 30.01 in 10.0 mi NE 8.1 mph - N/A   Overcast
9:35 AM 35.6 °F 30.7 °F 28.4 °F 75% 30.01 in 10.0 mi NE 5.8 mph - N/A   Overcast
9:55 AM 35.6 °F 29.2 °F 28.4 °F 75% 30.00 in 10.0 mi NE 8.1 mph - N/A   Overcast
10:15 AM 35.6 °F 29.9 °F 28.4 °F 75% 30.01 in 10.0 mi North 6.9 mph - N/A   Overcast
10:35 AM 35.6 °F 29.9 °F 28.4 °F 75% 30.01 in 10.0 mi NE 6.9 mph - N/A   Overcast
11:15 AM 35.6 °F 28.6 °F 28.4 °F 75% 30.02 in 10.0 mi NE 9.2 mph - N/A   Overcast
11:35 AM 37.4 °F 32.1 °F 30.2 °F 75% 30.02 in 10.0 mi NNE 6.9 mph - N/A   Overcast
11:55 AM 37.4 °F 30.8 °F 30.2 °F 75% 30.02 in 10.0 mi NNE 9.2 mph - N/A   Overcast
12:15 PM 37.4 °F 29.8 °F 30.2 °F 75% 30.01 in 10.0 mi NNE 11.5 mph - N/A   Overcast
12:35 PM 37.4 °F 30.3 °F 28.4 °F 70% 30.00 in 10.0 mi NNE 10.4 mph - N/A   Overcast
12:55 PM 37.4 °F 30.3 °F 28.4 °F 70% 29.99 in 10.0 mi NE 10.4 mph 18.4 mph N/A   Overcast
1:15 PM 37.4 °F 30.3 °F 28.4 °F 70% 29.97 in 10.0 mi NNE 10.4 mph - N/A   Overcast
1:35 PM 37.4 °F 29.3 °F 28.4 °F 70% 29.96 in 10.0 mi NE 12.7 mph - N/A   Overcast
1:55 PM 39.2 °F 32.0 °F 28.4 °F 65% 29.95 in 10.0 mi NE 11.5 mph 19.6 mph N/A   Overcast
2:35 PM 39.2 °F 31.2 °F 28.4 °F 65% 29.91 in 10.0 mi NE 13.8 mph - N/A   Overcast
2:55 PM 41.0 °F 35.2 °F 28.4 °F 61% 29.90 in 10.0 mi NE 9.2 mph 19.6 mph N/A   Overcast
3:15 PM 41.0 °F 33.1 °F 28.4 °F 61% 29.89 in 10.0 mi NNE 15.0 mph - N/A   Overcast
3:35 PM 41.0 °F 33.5 °F 28.4 °F 61% 29.88 in 10.0 mi NE 13.8 mph 19.6 mph N/A   Overcast
3:55 PM 41.0 °F 33.5 °F 28.4 °F 61% 29.87 in 10.0 mi NE 13.8 mph - N/A   Overcast
4:15 PM 41.0 °F 38.0 °F 30.2 °F 65% 29.89 in 10.0 mi NE 4.6 mph 10.4 mph N/A   Light Drizzle
4:35 PM 39.2 °F 34.2 °F 30.2 °F 70% 29.90 in 10.0 mi NE 6.9 mph - N/A   Drizzle
4:55 PM 37.4 °F 32.1 °F 32.0 °F 81% 29.90 in 10.0 mi ENE 6.9 mph - N/A   Drizzle
5:15 PM 37.4 °F 29.8 °F 32.0 °F 81% 29.89 in 5.0 mi NE 11.5 mph - 0.01 in Rain Light Rain
5:35 PM 35.6 °F 27.5 °F 32.0 °F 87% 29.88 in 5.0 mi NNE 11.5 mph - 0.05 in Rain Light Rain
5:55 PM 35.6 °F 28.6 °F 32.0 °F 87% 29.87 in 7.0 mi NNE 9.2 mph - 0.09 in Rain Light Rain
6:15 PM 35.6 °F 27.5 °F 32.0 °F 87% 29.88 in 7.0 mi NNE 11.5 mph 18.4 mph 0.03 in Rain Light Rain
6:35 PM 35.6 °F 27.1 °F 32.0 °F 87% 29.87 in 7.0 mi NE 12.7 mph - 0.04 in   Drizzle
6:55 PM 35.6 °F 28.0 °F 32.0 °F 87% 29.88 in 7.0 mi NNE 10.4 mph - 0.05 in Rain Rain
7:15 PM 35.6 °F 28.0 °F 32.0 °F 87% 29.89 in 5.0 mi NNE 10.4 mph - 0.01 in   Drizzle
7:35 PM 33.8 °F 24.3 °F 32.0 °F 93% 29.87 in 5.0 mi NNE 13.8 mph - 0.01 in Rain Rain
7:55 PM 33.8 °F 24.8 °F 32.0 °F 93% 29.88 in 5.0 mi North 12.7 mph - 0.03 in Rain Light Rain
8:35 PM 33.8 °F 24.8 °F 32.0 °F 93% 29.89 in 5.0 mi North 12.7 mph - 0.04 in Rain Light Rain
8:55 PM 32.0 °F 23.0 °F 32.0 °F 100% 29.88 in 3.0 mi North 11.5 mph - 0.06 in Snow Light Snow
9:15 PM 32.0 °F 25.6 °F 32.0 °F 100% 29.89 in 2.5 mi North 6.9 mph - 0.02 in Snow Light Snow
9:35 PM 32.0 °F 25.6 °F 32.0 °F 100% 29.91 in 2.5 mi North 6.9 mph - 0.03 in Snow Light Snow
9:55 PM 32.0 °F 23.6 °F 32.0 °F 100% 29.91 in 4.0 mi North 10.4 mph - 0.03 in Snow Light Snow
10:15 PM 32.0 °F 24.2 °F 32.0 °F 100% 29.91 in 4.0 mi North 9.2 mph - N/A Snow Light Snow
10:35 PM 32.0 °F 24.2 °F 32.0 °F 100% 29.92 in 5.0 mi NNW 9.2 mph - N/A   Overcast
10:55 PM 32.0 °F 24.2 °F 32.0 °F 100% 29.91 in 4.0 mi North 9.2 mph - N/A Snow Light Snow
11:15 PM 32.0 °F 24.2 °F 32.0 °F 100% 29.89 in 3.0 mi North 9.2 mph - N/A Snow Light Snow
11:35 PM 32.0 °F 24.2 °F 32.0 °F 100% 29.88 in 3.0 mi North 9.2 mph - 0.01 in Snow Light Snow
11:55 PM 32.0 °F 22.5 °F 32.0 °F 100% 29.85 in 3.0 mi NNE 12.7 mph - 0.01 in Snow Light Snow